Satellite: CO-58
Catalog number: 28895
Epoch time:      07192.73279349
Element set:     772
Inclination:      098.1309 deg
RA of node:       089.1092 deg
Eccentricity:    0.0018780
Arg of perigee:   038.2982 deg
Mean anomaly:     321.9548 deg
Mean motion:   14.59566751 rev/day
Decay rate:        4.2e-07 rev/day^2
Epoch rev:            9067
Checksum:              359

Satellite: NCUBE2
Catalog number: 28897
Epoch time:      07193.28469144
Element set:     300
Inclination:      098.1291 deg
RA of node:       089.6039 deg
Eccentricity:    0.0018192
Arg of perigee:   038.0799 deg
Mean anomaly:     322.1695 deg
Mean motion:   14.59730684 rev/day
Decay rate:       1.25e-06 rev/day^2
Epoch rev:            8303
Checksum:              325

Satellite: NMARS
Catalog number: 29662
Epoch time:      07126.39603970
Element set:     263
Inclination:      051.6121 deg
RA of node:       302.3682 deg
Eccentricity:    0.0004459
Arg of perigee:   252.1654 deg
Mean anomaly:     110.7411 deg
Mean motion:   16.47981436 rev/day
Decay rate:   7.031946e-02 rev/day^2
Epoch rev:            2165
Checksum:              289

Satellite: FCAL
Catalog number: 29667
Epoch time:      07192.79811781
Element set:    0211
Inclination:      051.6339 deg
RA of node:       325.1412 deg
Eccentricity:    0.0014535
Arg of perigee:   080.9523 deg
Mean anomaly:     279.3142 deg
Mean motion:   15.89027320 rev/day
Decay rate:     1.2398e-04 rev/day^2
Epoch rev:           03191
Checksum:              294

Satellite: FALCON
Catalog number: 30776
Epoch time:      07192.96937603
Element set:    0094
Inclination:      035.4339 deg
RA of node:       062.4267 deg
Eccentricity:    0.0002062
Arg of perigee:   325.1738 deg
Mean anomaly:     034.8843 deg
Mean motion:   15.02733201 rev/day
Decay rate:       1.79e-06 rev/day^2
Epoch rev:           01878
Checksum:              295

Satellite: MAST
Catalog number: 31126
Epoch time:      07192.76750959
Element set:      78
Inclination:      098.0808 deg
RA of node:       265.0248 deg
Eccentricity:    0.0093957
Arg of perigee:   309.9482 deg
Mean anomaly:     049.3464 deg
Mean motion:   14.53351588 rev/day
Decay rate:       3.92e-06 rev/day^2
Epoch rev:            1242
Checksum:              328

Satellite: CAPE1
Catalog number: 31130
Epoch time:      07192.16581140
Element set:    0075
Inclination:      098.0815 deg
RA of node:       264.2451 deg
Eccentricity:    0.0102218
Arg of perigee:   312.3574 deg
Mean anomaly:     046.9000 deg
Mean motion:   14.51865552 rev/day
Decay rate:        7.1e-07 rev/day^2
Epoch rev:           01209
Checksum:              251

/EX





More information about the Keps mailing list